[[{"header":{"parameterUnit":"m.s-1","parameterCategory":1,"la1":30.2991,"la2":30.254,"lo1":-89.0895,"lo2":-89.0444,"dy":0.0017,"dx":0.0017,"nx":28,"ny":28,"refTime":"2024-03-24T09:00:00:Z","depth":0,"parameterNumber":2,"parameterNumberName":"U-component_of_WINDS"},"data":[0,0,0,0,0,0,0,0,0,0,0,0,0,0,0,0,0,0,0,0,0,0,0,0,0,0,0,0,0,0,0,0,0,0,0,0,0,0,0,0,0,0,0,0,0,0,0,0,0,0,0,0,0,0,0,0,0,0,-1.0384,-1.0384,0,-1.0354,-1.0354,-1.0353,-1.028,-1.0278,-1.0276,-1.0275,-1.0246,-1.0246,-1.0247,0,0,0,0,0,0,0,0,0,0,0,0,0,-1.0379,-1.0379,-1.0384,-1.0384,-1.0384,-1.0354,-1.0354,-1.0353,-1.028,-1.0278,-1.0276,-1.0274,-1.0246,-1.0246,-1.0247,0,0,0,0,0,0,0,0,0,0,0,0,0,-1.0368,-1.038,-1.0384,-1.0343,-1.0339,-1.0354,-1.0354,-1.0353,-1.028,-1.0278,-1.0276,-1.0273,-1.0245,-1.0246,-1.0247,-1.03,0,0,-1.025,-1.0251,0,0,0,0,0,0,0,0,-1.0369,-1.0369,-1.035,-1.0346,-1.0342,-1.0318,-1.0341,-1.0335,-1.0281,-1.0303,-1.0275,-1.0272,-1.0272,-1.0271,-1.027,-1.0299,-1.0298,-1.025,-1.0251,-1.0252,-1.0252,0,0,0,0,0,0,0,-1.037,-1.037,-1.0372,-1.035,-1.0345,-1.0326,-1.0322,-1.034,-1.0301,-1.0301,-1.0295,-1.0293,-1.0269,-1.0269,-1.0269,-1.0297,-1.025,-1.0251,-1.0252,-1.0252,-1.0366,-1.0369,0,0,0,0,0,0,-1.0376,-1.0371,-1.0373,-1.0371,-1.035,-1.0328,-1.0324,-1.0328,-1.03,-1.0294,-1.0295,-1.0289,-1.0269,-1.0268,-1.0268,-1.0327,-1.0252,-1.0252,-1.0253,-1.0364,-1.0367,-1.037,0,0,0,0,0,0,-1.0377,-1.0377,-1.0375,-1.0369,-1.0368,-1.0331,-1.0336,-1.0329,-1.0329,-1.0296,-1.0289,-1.0302,-1.0267,-1.0266,-1.0292,-1.0325,-1.0253,-1.0254,-1.0361,-1.0365,-1.0368,-1.0448,0,0,0,0,0,0,-1.0377,-1.0378,-1.0398,-1.037,-1.0368,-1.04,-1.0338,-1.033,-1.033,-1.0323,-1.0301,-1.0295,-1.0265,-1.0291,-1.0293,-1.0326,-1.0255,-1.0358,-1.0363,-1.0367,-1.0442,-1.0454,-1.0464,0,0,0,0,0,-1.0377,-1.0422,-1.0399,-1.04,-1.0392,-1.0402,-1.0401,-1.0365,-1.0333,-1.0353,-1.0331,-1.0295,-1.0321,-1.0294,-1.0296,-1.0329,-1.0356,-1.0362,-1.0367,-1.0438,-1.0452,-1.0464,0,0,0,0,0,0,-1.0455,-1.0418,-1.0392,-1.043,-1.042,-1.039,-1.0414,-1.0382,-1.0381,-1.0374,-1.033,-1.0326,-1.0358,-1.0346,-1.0317,-1.0378,-1.0332,-1.0339,-1.0386,-1.0399,-1.0409,-1.0413,-1.0255,0,0,0,0,0,-1.0477,-1.0488,-1.0454,-1.0491,-1.0487,-1.0451,-1.0454,-1.0427,-1.0415,-1.0411,-1.0391,-1.0382,-1.0387,-1.0392,-1.0395,-1.0439,-1.0433,-1.0463,-1.0474,-1.0483,-1.0489,-1.0511,-1.0524,-1.0388,-1.0387,-1.0387,0,0,-1.0522,-1.0503,-1.0512,-1.0506,-1.0495,-1.0507,-1.0448,-1.0464,-1.0473,-1.0413,-1.0437,-1.0422,-1.0408,-1.0443,-1.0458,-1.0434,-1.0525,-1.049,-1.0497,-1.0498,-1.0518,-1.0531,-1.0542,-1.0391,-1.0391,-1.039,0,0,-1.0611,-1.0597,-1.0626,-1.0615,-1.0599,-1.0574,-1.0581,-1.0556,-1.0543,-1.0566,-1.0521,-1.0531,-1.0541,-1.0533,-1.053,-1.0613,-1.058,-1.0615,-1.0673,-1.0694,-1.0705,-1.0714,-1.0745,-1.0756,-1.0621,-1.0621,-1.0622,0,-1.067,-1.0686,-1.0645,-1.0663,-1.0662,-1.0606,-1.0635,-1.0627,-1.0613,-1.0614,-1.0586,-1.0598,-1.0584,-1.0617,-1.0637,-1.0636,-1.0643,-1.0619,-1.0707,-1.0716,-1.0724,-1.0752,-1.0763,-1.0626,-1.0625,-1.0625,-1.0624,0,-1.0759,-1.0771,-1.0796,-1.0783,-1.0784,-1.0807,-1.077,-1.0775,-1.0748,-1.0726,-1.0749,-1.073,-1.0729,-1.0734,-1.0708,-1.0762,-1.0748,-1.0715,-1.0668,-1.0742,-1.0768,-1.0778,-1.0632,-1.0631,-1.0629,-1.0628,0,0,-1.09,-1.0861,-1.0871,-1.0864,-1.0841,-1.0849,-1.087,-1.0867,-1.0873,-1.0864,-1.0881,-1.089,-1.0858,-1.0855,-1.0826,-1.0845,-1.0912,-1.0809,-1.0808,-1.083,-1.0972,-1.0998,-1.1011,-1.0889,-1.0891,-1.0892,-1.0973,0,-1.0984,-1.1017,-1.0979,-1.102,-1.1031,-1.0977,-1.0995,-1.0982,-1.0962,-1.0968,-1.0945,-1.0952,-1.091,-1.0907,-1.0923,-1.0901,-1.094,-1.0894,-1.0904,-1.0905,-1.0912,-1.1025,-1.1053,-1.1131,-1.0983,-1.0984,-1.0986,0,-1.1088,-1.1083,-1.1125,-1.1097,-1.11,-1.1117,-1.1111,-1.1117,-1.1101,-1.1084,-1.108,-1.1045,-1.1063,-1.1015,-1.1039,-1.1009,-1.101,-1.0999,-1.1001,-1.1003,-1.0952,-1.103,-1.1154,-1.1167,-1.1001,-1.1,-1.0999,0,-1.1187,-1.1191,-1.1216,-1.1211,-1.118,-1.1193,-1.118,-1.1162,-1.1162,-1.1156,-1.1156,-1.1153,-1.1152,-1.115,-1.1115,-1.1084,-1.1143,-1.1093,-1.1131,-1.1132,-1.1148,-1.1148,-1.1275,-1.1146,-1.1146,-1.1146,-1.1145,0,-1.1287,-1.1315,-1.126,-1.1276,-1.1306,-1.1261,-1.1292,-1.1273,-1.1257,-1.1268,-1.1221,-1.1233,-1.1185,-1.1191,-1.1164,-1.1188,-1.1187,-1.1175,-1.1167,-1.118,-1.1182,-1.1182,-1.1176,-1.1149,-1.1148,-1.1147,-1.1147,0,-1.1404,-1.1369,-1.1393,-1.136,-1.1352,-1.1376,-1.1347,-1.1361,-1.1336,-1.1351,-1.1351,-1.1313,-1.1318,-1.1282,-1.128,-1.1261,-1.1299,-1.1281,-1.1305,-1.13,-1.134,-1.1337,-1.1473,-1.1489,-1.1349,-1.135,-1.1351,0,-1.1471,-1.1491,-1.146,-1.1464,-1.1453,-1.146,-1.1459,-1.1416,-1.1417,-1.1399,-1.1415,-1.1415,-1.1414,-1.1423,-1.1396,-1.1394,-1.1377,-1.1424,-1.1376,-1.1388,-1.1379,-1.1379,-1.138,-1.1435,-1.1437,-1.1439,-1.144,0,-1.1594,-1.1575,-1.1576,-1.157,-1.1571,-1.1565,-1.1556,-1.1561,-1.1513,-1.1517,-1.1521,-1.152,-1.1517,-1.1518,-1.151,-1.1497,-1.1461,-1.1454,-1.1463,-1.1478,-1.149,-1.1485,-1.1334,-1.1452,-1.1451,-1.145,-1.1449,-1.1449,-1.1689,-1.1704,-1.1684,-1.1686,-1.1674,-1.1666,-1.1677,-1.1652,-1.1654,-1.1648,-1.1622,-1.163,-1.1612,-1.1597,-1.1587,-1.1593,-1.157,-1.1582,-1.1586,-1.159,-1.1598,-1.1488,-1.1591,-1.1591,-1.159,-1.159,-1.159,0,-1.181,-1.1794,-1.1796,-1.1784,-1.1786,-1.1749,-1.1737,-1.1741,-1.1749,-1.1734,-1.1733,-1.1736,-1.1737,-1.1708,-1.1704,-1.1714,-1.1697,-1.1715,-1.1715,-1.1712,-1.1618,-1.1612,-1.1728,-1.1728,-1.1728,-1.1728,-1.1728,-1.1728,-1.1874,-1.1897,-1.1875,-1.1892,-1.1875,-1.1883,-1.1878,-1.187,-1.1859,-1.1865,-1.1864,-1.1845,-1.1824,-1.1818,-1.1817,-1.1808,-1.1809,-1.1833,-1.1819,-1.1732,-1.1719,-1.1706,-1.17,-1.1833,-1.1833,-1.1912,-1.1913,-1.1914]},{"header":{"parameterUnit":"m.s-1","parameterCategory":1,"la1":30.2991,"la2":30.254,"lo1":-89.0895,"lo2":-89.0444,"dy":0.0017,"dx":0.0017,"nx":28,"ny":28,"refTime":"2024-03-24T09:00:00:Z","depth":0,"parameterNumber":3,"parameterNumberName":"V-component_of_WINDS"},"data":[0,0,0,0,0,0,0,0,0,0,0,0,0,0,0,0,0,0,0,0,0,0,0,0,0,0,0,0,0,0,0,0,0,0,0,0,0,0,0,0,0,0,0,0,0,0,0,0,0,0,0,0,0,0,0,0,0,0,-5.4271,-5.4273,0,-5.4415,-5.4417,-5.4418,-5.4355,-5.4351,-5.4348,-5.4345,-5.4489,-5.4496,-5.4503,0,0,0,0,0,0,0,0,0,0,0,0,0,-5.3937,-5.3944,-5.4271,-5.4273,-5.4275,-5.4415,-5.4417,-5.4419,-5.4356,-5.4351,-5.4347,-5.4343,-5.4487,-5.4495,-5.4504,0,0,0,0,0,0,0,0,0,0,0,0,0,-5.4082,-5.3946,-5.4271,-5.426,-5.426,-5.4415,-5.4417,-5.4419,-5.4356,-5.4351,-5.4346,-5.4341,-5.4484,-5.4495,-5.4505,-5.4677,0,0,-5.4538,-5.4543,0,0,0,0,0,0,0,0,-5.4074,-5.4094,-5.426,-5.4261,-5.4262,-5.4362,-5.4352,-5.4506,-5.4358,-5.432,-5.4344,-5.4338,-5.4451,-5.4464,-5.4503,-5.4684,-5.469,-5.4539,-5.4545,-5.455,-5.4553,0,0,0,0,0,0,0,-5.4064,-5.4088,-5.4328,-5.4262,-5.4264,-5.4247,-5.4262,-5.4381,-5.4413,-5.4323,-5.4319,-5.4337,-5.445,-5.4493,-5.4506,-5.4692,-5.4539,-5.4548,-5.4555,-5.4559,-5.5021,-5.5027,0,0,0,0,0,0,-5.4054,-5.408,-5.4323,-5.4332,-5.4153,-5.4257,-5.4274,-5.4335,-5.4412,-5.4419,-5.4341,-5.4333,-5.4477,-5.4493,-5.451,-5.4717,-5.455,-5.456,-5.4566,-5.5015,-5.5022,-5.5029,0,0,0,0,0,0,-5.4048,-5.4077,-5.4317,-5.4205,-5.4234,-5.4269,-5.4338,-5.4341,-5.4383,-5.4426,-5.4431,-5.4378,-5.4473,-5.4495,-5.4636,-5.4721,-5.4565,-5.4575,-5.5008,-5.5017,-5.5026,-5.5131,0,0,0,0,0,0,-5.4038,-5.4075,-5.4141,-5.4207,-5.4241,-5.4443,-5.4343,-5.4347,-5.4402,-5.4393,-5.4462,-5.4468,-5.4471,-5.4621,-5.4647,-5.4733,-5.4583,-5.5001,-5.5012,-5.5023,-5.512,-5.5142,-5.5161,0,0,0,0,0,-5.4027,-5.4165,-5.4145,-5.4175,-5.4325,-5.4448,-5.4467,-5.4468,-5.4409,-5.4475,-5.4503,-5.4466,-5.4707,-5.4636,-5.4665,-5.4755,-5.4996,-5.5009,-5.5022,-5.5111,-5.5138,-5.5161,0,0,0,0,0,0,-5.4108,-5.4173,-5.4152,-5.4316,-5.4377,-5.4437,-5.4521,-5.4496,-5.4574,-5.4562,-5.4559,-5.4575,-5.4721,-5.4752,-5.4671,-5.4925,-5.4842,-5.4862,-5.49,-5.4926,-5.4946,-5.4936,-5.4592,0,0,0,0,0,-5.4145,-5.424,-5.4292,-5.4431,-5.4463,-5.4487,-5.454,-5.4536,-5.4598,-5.4623,-5.4661,-5.4722,-5.4811,-5.487,-5.4955,-5.5124,-5.5138,-5.52,-5.5221,-5.5237,-5.5255,-5.5346,-5.5374,-5.5072,-5.5072,-5.5072,0,0,-5.4223,-5.427,-5.433,-5.4449,-5.4495,-5.4593,-5.4509,-5.4616,-5.4688,-5.4639,-5.4775,-5.4804,-5.4872,-5.5028,-5.5098,-5.5058,-5.5341,-5.5254,-5.5267,-5.5275,-5.5362,-5.5391,-5.5416,-5.5081,-5.5079,-5.5078,0,0,-5.4414,-5.446,-5.4581,-5.4629,-5.4701,-5.4715,-5.4745,-5.4808,-5.4826,-5.4963,-5.4928,-5.5012,-5.5167,-5.5216,-5.5261,-5.547,-5.5439,-5.5498,-5.5605,-5.5694,-5.5718,-5.5739,-5.5813,-5.584,-5.5514,-5.5515,-5.5515,0,-5.4501,-5.4648,-5.4646,-5.4756,-5.4809,-5.4769,-5.4892,-5.4938,-5.5033,-5.507,-5.5024,-5.5216,-5.5258,-5.5425,-5.5476,-5.5514,-5.5546,-5.549,-5.5715,-5.5736,-5.5756,-5.5826,-5.5854,-5.5521,-5.5521,-5.552,-5.5519,0,-5.4751,-5.4854,-5.4943,-5.5037,-5.5099,-5.5215,-5.5229,-5.5292,-5.5282,-5.5301,-5.544,-5.5489,-5.5583,-5.5622,-5.5612,-5.5787,-5.576,-5.5714,-5.5631,-5.5791,-5.5858,-5.5885,-5.5531,-5.5528,-5.5527,-5.5525,0,0,-5.5,-5.509,-5.5123,-5.5165,-5.524,-5.5319,-5.5431,-5.5524,-5.5578,-5.5644,-5.5738,-5.5869,-5.5827,-5.5879,-5.5874,-5.5952,-5.6114,-5.5897,-5.5898,-5.5936,-5.6309,-5.6343,-5.6375,-5.6093,-5.6098,-5.6103,-5.6303,0,-5.5197,-5.5396,-5.5397,-5.558,-5.5674,-5.5637,-5.5735,-5.5791,-5.5812,-5.5893,-5.5915,-5.6008,-5.5946,-5.5977,-5.6052,-5.6078,-5.6189,-5.6064,-5.618,-5.6184,-5.6165,-5.6409,-5.6446,-5.6633,-5.6329,-5.6334,-5.6337,0,-5.5454,-5.553,-5.5722,-5.5783,-5.5823,-5.5911,-5.5995,-5.6074,-5.6136,-5.6145,-5.6203,-5.6186,-5.6299,-5.6212,-5.6368,-5.6283,-5.633,-5.635,-5.6357,-5.6368,-5.6271,-5.6428,-5.6693,-5.6721,-5.6378,-5.6374,-5.6371,0,-5.5616,-5.5766,-5.59,-5.5937,-5.6011,-5.6074,-5.6108,-5.6165,-5.622,-5.6293,-5.6329,-5.6414,-5.646,-5.6526,-5.6532,-5.6468,-5.6689,-5.6602,-5.6699,-5.6699,-5.6748,-5.6745,-5.7025,-5.6778,-5.6777,-5.6777,-5.6776,0,-5.5837,-5.5956,-5.5974,-5.6057,-5.6189,-5.6188,-5.6318,-5.6346,-5.6397,-5.6484,-5.6456,-5.6538,-5.6541,-5.6624,-5.6629,-5.6757,-5.6778,-5.6788,-5.6788,-5.6791,-5.679,-5.6822,-5.681,-5.6784,-5.6782,-5.6781,-5.678,0,-5.604,-5.6057,-5.6202,-5.626,-5.6277,-5.6372,-5.6422,-5.65,-5.6517,-5.6627,-5.6653,-5.668,-5.6776,-5.6789,-5.6901,-5.6904,-5.7058,-5.7044,-5.7038,-5.7036,-5.7132,-5.7123,-5.7444,-5.7486,-5.721,-5.7213,-5.7215,0,-5.6181,-5.6272,-5.634,-5.6397,-5.6434,-5.6525,-5.6581,-5.6583,-5.6643,-5.672,-5.6789,-5.6882,-5.6957,-5.7113,-5.7142,-5.7227,-5.7215,-5.7321,-5.7228,-5.7227,-5.7217,-5.7212,-5.7221,-5.734,-5.7343,-5.7345,-5.7347,0,-5.6428,-5.6431,-5.6514,-5.66,-5.6668,-5.6735,-5.6798,-5.6846,-5.6855,-5.6923,-5.7022,-5.708,-5.7194,-5.7288,-5.7372,-5.7404,-5.7378,-5.7376,-5.7403,-5.7408,-5.7401,-5.7406,-5.7088,-5.7369,-5.7367,-5.7365,-5.7364,-5.7363,-5.6604,-5.6683,-5.6744,-5.6836,-5.6884,-5.6944,-5.702,-5.7047,-5.7129,-5.7224,-5.7219,-5.7327,-5.7385,-5.7496,-5.7535,-5.7619,-5.7583,-5.7623,-5.7633,-5.7642,-5.7652,-5.7387,-5.7634,-5.7633,-5.7633,-5.7632,-5.7632,0,-5.685,-5.6887,-5.6972,-5.7062,-5.7134,-5.7103,-5.7171,-5.7233,-5.733,-5.7386,-5.7461,-5.7574,-5.7663,-5.7699,-5.7786,-5.7847,-5.7837,-5.787,-5.7866,-5.7874,-5.7679,-5.7647,-5.7876,-5.7876,-5.7876,-5.7876,-5.7876,-5.7876,-5.6987,-5.7119,-5.7129,-5.7284,-5.7319,-5.7426,-5.7468,-5.7522,-5.7567,-5.7695,-5.777,-5.7792,-5.7841,-5.7931,-5.8011,-5.8019,-5.8053,-5.8092,-5.8094,-5.7912,-5.7887,-5.7864,-5.7834,-5.8099,-5.8099,-5.8282,-5.8284,-5.8285]}]]